Find Starlink 32467

NORAD ID: 61713 Int'l Des: 2024-196 Owner: SPXS Country: US Constellation: starlink operational
LEOCIRCULAR

Current View

Loading 3D Globe...

About Starlink 32467

Starlink 32467 (NORAD 61713) is a starlink constellation satellite (v2 mini) launched Oct 30, 2024 by SPXS of US. It operates in LEO, CIRCULAR orbit with a mass of 730.00 kg.

Upcoming Passes

Passes for default location (London). Set your location on the main map for personalized predictions.

Altitude History

Loading altitude history...

Two-Line Element Set

1 61713U 24196G 26235.74440153 .00000186 00000-0 16630-4 0 9991
2 61713 53.1613 43.2506 0001241 92.7658 267.3486 15.34391619102768
Epoch: Aug 23, 2026 • Age: 13 hours

Current Status

Altitude 467.5 km
Apogee / Perigee N/A
Velocity 7.64 km/s
Sub-Earth Point 48.61°N, 25.83°E
Launch Date Oct 30, 2024
Age 1.8 years
Type internet

Technical Details

Classification Payload
Mass 730.00 kg
Dry Mass 700.00 kg
Total Mass 730.00 kg
Length 0.30 m
Diameter 4.10 m
Span 29.00 m
Shape Box + pan
Manufacturer SPXS
Bus Type Starlink V2M
Phase Status In Orbit
Owner/State SPXS/US

Most Searched